SBONWEB Weather Reports


Display with metric or nautical units.
time (UTC)temp
F
wind
direction
speed
MPH
gust
MPH
rain 1hr
in
rain 24hr
in
rain mn
in
humidity
%
barometer
mb
20260508133817 66 145 5.0 11.0 0.00 0.00 0.00 68 1015.8
20260508132916 66 126 3.0 11.0 0.00 0.00 0.00 67 1015.7
20260508132018 66 137 3.0 8.0 0.00 0.00 0.00 66 1015.7
20260508130903 65 125 4.0 9.0 0.00 0.00 0.00 68 1015.8
20260508130003 65 131 3.0 10.0 0.00 0.00 0.00 67 1015.9
20260508125403 66 152 3.0 8.0 0.00 0.00 0.00 65 1015.8
20260508124503 66 133 4.0 8.0 0.00 0.00 0.00 64 1015.8
20260508123603 66 130 4.0 9.0 0.00 0.00 0.00 62 1015.8
20260508122918 67 138 4.0 8.0 0.00 0.00 0.00 63 1015.9
20260508121803 66 100 3.0 9.0 0.00 0.00 0.00 64 1015.9
20260508120903 65 110 3.0 9.0 0.00 0.00 0.00 64 1015.9
20260508120003 66 108 2.0 8.0 0.00 0.00 0.00 64 1016.0
20260508115403 65 92 3.0 8.0 0.00 0.00 0.00 65 1016.0
20260508114504 65 101 4.0 8.0 0.00 0.00 0.00 64 1015.9
20260508113603 65 96 4.0 8.0 0.00 0.00 0.00 64 1016.2
20260508112704 65 106 3.0 8.0 0.00 0.00 0.00 65 1016.2
20260508111803 65 88 2.0 11.0 0.00 0.00 0.00 64 1016.2
20260508111118 65 144 4.0 9.0 0.00 0.00 0.00 66 1016.2
20260508110003 65 116 5.0 10.0 0.00 0.00 0.00 67 1016.4
20260508105403 65 116 3.0 10.0 0.00 0.00 0.00 66 1016.4
20260508104504 64 83 5.0 8.0 0.00 0.00 0.00 66 1016.4
20260508103603 64 95 6.0 11.0 0.00 0.00 0.00 66 1016.4
20260508102703 64 106 4.0 10.0 0.00 0.00 0.00 68 1016.5
20260508101803 64 102 4.0 8.0 0.00 0.00 0.00 68 1016.6
20260508100903 63 135 3.0 10.0 0.00 0.00 0.00 69 1016.7
20260508100003 63 124 3.0 5.0 0.00 0.00 0.00 70 1016.6
20260508095403 63 76 3.0 8.0 0.00 0.00 0.00 69 1016.6
20260508094503 63 98 3.0 7.0 0.00 0.00 0.00 71 1016.6
20260508093603 62 95 4.0 11.0 0.00 0.00 0.00 71 1016.6
20260508092703 62 94 4.0 9.0 0.00 0.00 0.00 70 1016.6
20260508091803 63 86 3.0 8.0 0.00 0.00 0.00 69 1016.6
20260508090903 63 104 2.0 8.0 0.00 0.00 0.00 71 1016.6
20260508090003 62 97 3.0 6.0 0.00 0.00 0.00 71 1016.7
20260508085616 61 94 3.0 6.0 0.00 0.00 0.00 72 1016.6
20260508084503 61 95 3.0 6.0 0.00 0.00 0.00 72 1016.6
20260508083603 61 114 3.0 8.0 0.00 0.00 0.00 72 1016.6
20260508082704 61 114 3.0 7.0 0.00 0.00 0.00 72 1016.6
20260508081803 61 82 4.0 7.0 0.00 0.00 0.00 71 1016.6
20260508080903 61 101 5.0 9.0 0.00 0.00 0.00 70 1016.5
20260508080003 61 111 4.0 11.0 0.00 0.00 0.00 70 1016.5
20260508075403 61 111 3.0 9.0 0.00 0.00 0.00 71 1016.5
20260508074503 61 84 2.0 6.0 0.00 0.00 0.00 70 1016.4
20260508073603 61 128 1.0 4.0 0.00 0.00 0.00 70 1016.4
20260508072703 61 101 2.0 6.0 0.00 0.00 0.00 73 1016.2
20260508071803 61 93 2.0 4.0 0.00 0.00 0.00 71 1016.2
20260508070903 60 115 1.0 4.0 0.00 0.00 0.00 72 1016.2
20260508070218 60 104 1.0 2.0 0.00 0.00 0.00 74 1016.2
20260508065403 59 230 1.0 4.0 0.00 0.00 0.00 77 1016.1
20260508064503 58 221 1.0 4.0 0.00 0.00 0.00 78 1016.1
20260508063816 57 216 1.0 3.0 0.00 0.00 0.00 80 1015.9
20260508062703 57 6 2.0 3.0 0.00 0.00 0.00 82 1015.9
20260508061803 57 17 2.0 4.0 0.00 0.00 0.00 83 1015.8
20260508060903 56 9 1.0 4.0 0.00 0.00 0.00 82 1015.7
20260508060003 56 13 2.0 3.0 0.00 0.00 0.00 84 1015.8
20260508055617 56 14 2.0 3.0 0.00 0.00 0.00 84 1015.8
20260508054503 57 23 1.0 4.0 0.00 0.00 0.00 82 1015.6
20260508053603 57 8 1.0 3.0 0.00 0.00 0.00 80 1015.5
20260508052703 57 10 3.0 4.0 0.00 0.00 0.00 80 1015.5
20260508051803 56 1 3.0 7.0 0.00 0.00 0.00 80 1015.3
20260508050903 55 5 4.0 7.0 0.00 0.00 0.00 82 1015.3
20260508050003 54 7 4.0 8.0 0.00 0.00 0.00 83 1015.2
20260508045404 54 8 4.0 8.0 0.00 0.00 0.00 84 1015.2
20260508044503 53 5 2.0 6.0 0.00 0.00 0.00 85 1015.1
20260508043603 53 358 1.0 4.0 0.00 0.00 0.00 85 1015.1
20260508042703 53 3 2.0 4.0 0.00 0.00 0.00 84 1015.0
20260508041803 53 7 3.0 4.0 0.00 0.00 0.00 83 1014.9
20260508040903 54 23 3.0 5.0 0.00 0.00 0.00 82 1014.8
20260508040004 54 26 2.0 5.0 0.00 0.00 0.00 83 1014.9
20260508035617 54 23 2.0 5.0 0.00 0.00 0.00 83 1014.8
20260508034504 53 14 2.0 4.0 0.00 0.00 0.00 83 1015.0
20260508033603 53 15 2.0 4.0 0.00 0.00 0.00 83 1015.0
20260508032703 53 19 2.0 4.0 0.00 0.00 0.00 83 1014.9
20260508031804 53 24 2.0 4.0 0.00 0.00 0.00 83 1014.8
20260508030903 53 13 3.0 4.0 0.00 0.00 0.00 83 1014.8
20260508030217 53 11 3.0 5.0 0.00 0.00 0.00 83 1014.7
20260508025403 53 18 4.0 7.0 0.00 0.00 0.00 84 1014.7
20260508024503 53 20 4.0 7.0 0.00 0.00 0.00 85 1014.6
20260508023604 53 14 4.0 8.0 0.00 0.00 0.00 84 1014.6
20260508022703 53 30 5.0 9.0 0.00 0.00 0.00 84 1014.6
20260508021803 53 19 5.0 9.0 0.00 0.00 0.00 84 1014.5
20260508020904 53 19 4.0 7.0 0.00 0.00 0.00 84 1014.5
20260508020003 53 23 5.0 8.0 0.00 0.00 0.00 84 1014.5
20260508015403 53 23 5.0 8.0 0.00 0.00 0.00 84 1014.5
20260508014504 54 21 5.0 8.0 0.00 0.00 0.00 84 1014.4
20260508013603 54 18 5.0 9.0 0.00 0.00 0.00 84 1014.4
20260508012703 54 16 5.0 9.0 0.00 0.00 0.00 84 1014.3
20260508011803 54 12 5.0 9.0 0.00 0.00 0.00 84 1014.4
20260508010903 53 11 4.0 9.0 0.00 0.00 0.00 85 1014.3
20260508010003 53 358 2.0 9.0 0.00 0.00 0.00 87 1014.5
20260508005617 52 5 2.0 5.0 0.00 0.00 0.00 87 1014.4
20260508004504 52 286 1.0 3.0 0.00 0.00 0.00 88 1014.5
20260508003605 52 347 1.0 3.0 0.00 0.00 0.00 88 1014.5
20260508002703 52 241 1.0 2.0 0.00 0.00 0.00 89 1014.6
20260508001803 51 338 0.0 3.0 0.00 0.00 0.00 90 1014.6
20260508000903 51 0 0.0 0.0 0.00 0.00 0.00 91 1014.6
20260508000003 51 0 0.0 0.0 0.00 0.00 0.00 91 1014.6
20260507235403 51 0 0.0 0.0 0.00 0.00 0.00 91 1014.5
20260507234504 51 0 0.0 0.0 0.00 0.00 0.00 90 1014.5
20260507233603 51 0 0.0 0.0 0.00 0.00 0.00 90 1014.5
20260507232704 51 0 0.0 0.0 0.00 0.01 0.00 90 1014.5
20260507231803 52 0 0.0 0.0 0.00 0.01 0.00 90 1014.6
20260507230903 52 0 0.0 0.0 0.00 0.01 0.00 90 1014.6
20260507230217 52 0 0.0 0.0 0.00 0.01 0.00 89 1014.7
20260507225403 52 0 0.0 0.0 0.00 0.01 0.00 89 1014.7
20260507224504 52 0 0.0 0.0 0.00 0.01 0.00 89 1014.7
20260507223603 52 29 1.0 2.0 0.00 0.01 0.00 88 1014.8
20260507222703 52 29 1.0 3.0 0.00 0.01 0.00 88 1014.7
20260507221803 53 29 0.0 2.0 0.00 0.01 0.00 87 1014.7
20260507220903 53 29 1.0 2.0 0.00 0.01 0.00 87 1014.6
20260507220217 53 29 0.0 2.0 0.00 0.02 0.00 86 1014.6
20260507215404 53 0 0.0 0.0 0.00 0.02 0.02 86 1014.6
20260507214503 54 0 1.0 0.0 0.00 0.02 0.02 85 1014.7
20260507213603 54 29 1.0 3.0 0.00 0.02 0.02 85 1014.5
20260507212703 54 29 1.0 3.0 0.00 0.02 0.02 84 1014.5
20260507211804 54 29 0.0 2.0 0.00 0.02 0.02 84 1014.5
20260507210903 54 0 0.0 0.0 0.00 0.02 0.02 83 1014.5
20260507210003 54 0 0.0 0.0 0.00 0.02 0.02 82 1014.4
20260507205618 55 0 0.0 0.0 0.00 0.02 0.02 81 1014.5
20260507204503 55 40 1.0 2.0 0.00 0.02 0.02 81 1014.3
20260507203817 54 71 1.0 3.0 0.00 0.02 0.02 82 1014.3
20260507202703 54 183 0.0 3.0 0.00 0.02 0.02 82 1014.3
20260507202017 54 0 0.0 0.0 0.00 0.02 0.02 82 1014.2
20260507200903 55 207 0.0 1.0 0.00 0.02 0.02 81 1014.0
20260507200003 55 207 0.0 2.0 0.00 0.02 0.02 80 1013.8
20260507195403 55 0 0.0 0.0 0.00 0.02 0.02 80 1013.8
20260507194717 55 0 0.0 0.0 0.00 0.02 0.02 80 1013.7
20260507193604 56 0 0.0 0.0 0.00 0.02 0.02 79 1013.6
20260507192703 56 0 0.0 0.0 0.00 0.02 0.02 78 1013.4
20260507191803 57 206 0.0 1.0 0.00 0.02 0.02 77 1013.3
20260507190903 57 206 1.0 2.0 0.00 0.02 0.02 76 1013.0
20260507190218 58 206 0.0 2.0 0.00 0.02 0.02 74 1013.1
20260507185404 58 184 1.0 2.0 0.00 0.02 0.02 72 1013.1
20260507184503 60 184 1.0 2.0 0.00 0.02 0.02 69 1013.0
20260507183603 61 184 0.0 2.0 0.00 0.02 0.02 69 1012.7
20260507182704 62 184 1.0 2.0 0.00 0.02 0.02 67 1012.6
20260507181803 63 184 1.0 2.0 0.00 0.02 0.02 61 1012.6
20260507180903 65 180 1.0 2.0 0.00 0.06 0.02 60 1012.5
20260507180003 66 174 1.0 2.0 0.00 0.13 0.02 58 1012.4
20260507175403 66 168 1.0 4.0 0.00 0.15 0.02 56 1012.4
20260507174504 67 151 1.0 3.0 0.00 0.17 0.02 53 1012.2
20260507173818 66 148 2.0 4.0 0.00 0.19 0.02 52 1012.3
20260507172703 66 139 3.0 5.0 0.00 0.25 0.02 52 1012.0
20260507171804 67 139 2.0 7.0 0.00 0.27 0.02 53 1012.2
20260507170903 67 136 2.0 5.0 0.00 0.28 0.02 51 1012.1
20260507170003 68 172 3.0 6.0 0.00 0.29 0.02 53 1012.1
20260507165403 68 161 3.0 7.0 0.00 0.29 0.02 51 1012.0
20260507164503 68 160 3.0 8.0 0.00 0.29 0.02 52 1012.1
20260507163603 67 144 3.0 7.0 0.00 0.29 0.02 52 1012.1
20260507162703 67 137 3.0 8.0 0.00 0.29 0.02 52 1012.0
20260507161803 67 148 3.0 6.0 0.00 0.29 0.02 51 1011.9
20260507160903 68 127 2.0 7.0 0.00 0.29 0.02 50 1011.9
20260507160003 68 141 1.0 6.0 0.00 0.29 0.02 48 1012.0
20260507155618 68 157 1.0 4.0 0.00 0.29 0.02 53 1012.0
20260507154503 67 138 2.0 6.0 0.00 0.29 0.02 53 1011.9
20260507153603 67 142 2.0 5.0 0.00 0.29 0.02 52 1012.0
20260507152703 67 132 2.0 5.0 0.00 0.29 0.02 53 1011.9
20260507151803 67 115 2.0 4.0 0.00 0.29 0.02 52 1011.9
20260507150904 67 101 3.0 7.0 0.00 0.29 0.02 50 1012.1
20260507150003 67 98 4.0 8.0 0.00 0.29 0.02 52 1012.1
20260507145404 68 134 3.0 8.0 0.00 0.29 0.02 52 1012.1
20260507144503 68 195 1.0 5.0 0.00 0.29 0.02 52 1012.1
20260507143603 67 138 1.0 2.0 0.00 0.29 0.02 50 1012.2
20260507142703 66 154 2.0 5.0 0.00 0.29 0.02 52 1012.2
20260507141803 67 140 3.0 5.0 0.00 0.29 0.02 50 1012.2
20260507141116 67 141 3.0 8.0 0.00 0.29 0.02 52 1012.2
20260507140004 68 138 4.0 7.0 0.00 0.29 0.02 52 1012.4
20260507135403 68 152 4.0 11.0 0.00 0.29 0.02 54 1012.4
20260507134503 68 131 2.0 7.0 0.00 0.29 0.02 54 1012.4